Year,Month,Day,Hour,Minute,Value (Times are PST for temperature in C)
2014,09,15,00,00,18.00
2014,09,15,00,01,18.10
2014,09,15,00,02,18.10
2014,09,15,00,03,18.10
2014,09,15,00,04,18.10
2014,09,15,00,05,18.10
2014,09,15,00,06,18.10
2014,09,15,00,07,18.10
2014,09,15,00,08,18.00
2014,09,15,00,09,18.00
2014,09,15,00,10,18.00
2014,09,15,00,11,17.90
2014,09,15,00,12,17.90
2014,09,15,00,13,17.90
2014,09,15,00,14,17.90
2014,09,15,00,15,17.80
2014,09,15,00,16,17.80
2014,09,15,00,17,17.80
2014,09,15,00,18,17.80
2014,09,15,00,19,17.70
2014,09,15,00,20,17.70
2014,09,15,00,21,17.70
2014,09,15,00,22,17.60
2014,09,15,00,23,17.60
2014,09,15,00,24,17.60
2014,09,15,00,25,17.50
2014,09,15,00,26,17.50
2014,09,15,00,27,17.40
2014,09,15,00,28,17.40
2014,09,15,00,29,17.30
2014,09,15,00,30,17.30
2014,09,15,00,31,17.30
2014,09,15,00,32,17.30
2014,09,15,00,33,17.20
2014,09,15,00,34,17.20
2014,09,15,00,35,17.20
2014,09,15,00,36,17.20
2014,09,15,00,37,17.10
2014,09,15,00,38,17.00
2014,09,15,00,39,17.00
2014,09,15,00,40,16.90
2014,09,15,00,41,16.80
2014,09,15,00,42,16.80
2014,09,15,00,43,16.70
2014,09,15,00,44,16.70
2014,09,15,00,45,16.70
2014,09,15,00,46,16.60
2014,09,15,00,47,16.60
2014,09,15,00,48,16.60
2014,09,15,00,49,16.60
2014,09,15,00,50,16.50
2014,09,15,00,51,16.50
2014,09,15,00,52,16.40
2014,09,15,00,53,16.40
2014,09,15,00,54,16.30
2014,09,15,00,55,16.30
2014,09,15,00,56,16.30
2014,09,15,00,57,16.20
2014,09,15,00,58,16.20
2014,09,15,00,59,16.20
2014,09,15,01,00,16.10
2014,09,15,01,01,16.10
2014,09,15,01,02,16.10
2014,09,15,01,03,16.20
2014,09,15,01,04,16.20
2014,09,15,01,05,16.30
2014,09,15,01,06,16.30
2014,09,15,01,07,16.40
2014,09,15,01,08,16.40
2014,09,15,01,09,16.40
2014,09,15,01,10,16.50
2014,09,15,01,11,16.40
2014,09,15,01,12,16.40
2014,09,15,01,13,16.40
2014,09,15,01,14,16.30
2014,09,15,01,15,16.30
2014,09,15,01,16,16.20
2014,09,15,01,17,16.10
2014,09,15,01,18,16.00
2014,09,15,01,19,16.00
2014,09,15,01,20,15.90
2014,09,15,01,21,15.80
2014,09,15,01,22,15.70
2014,09,15,01,23,15.70
2014,09,15,01,24,15.60
2014,09,15,01,25,15.60
2014,09,15,01,26,15.50
2014,09,15,01,27,15.50
2014,09,15,01,28,15.40
2014,09,15,01,29,15.40
2014,09,15,01,30,15.30
2014,09,15,01,31,15.30
2014,09,15,01,32,15.30
2014,09,15,01,33,15.30
2014,09,15,01,34,15.30
2014,09,15,01,35,15.30
2014,09,15,01,36,15.20
2014,09,15,01,37,15.20
2014,09,15,01,38,15.20
2014,09,15,01,39,15.30
2014,09,15,01,40,15.30
2014,09,15,01,41,15.30
2014,09,15,01,42,15.30
2014,09,15,01,43,15.30
2014,09,15,01,44,15.30
2014,09,15,01,45,15.30
2014,09,15,01,46,15.30
2014,09,15,01,47,15.30
2014,09,15,01,48,15.30
2014,09,15,01,49,15.30
2014,09,15,01,50,15.30
2014,09,15,01,51,15.30
2014,09,15,01,52,15.20
2014,09,15,01,53,15.20
2014,09,15,01,54,15.20
2014,09,15,01,55,15.20
2014,09,15,01,56,15.20
2014,09,15,01,57,15.20
2014,09,15,01,58,15.20
2014,09,15,01,59,15.20
2014,09,15,02,00,15.20
2014,09,15,02,01,15.20
2014,09,15,02,02,15.20
2014,09,15,02,03,15.20
2014,09,15,02,04,15.20
2014,09,15,02,05,15.20
2014,09,15,02,06,15.20
2014,09,15,02,07,15.20
2014,09,15,02,08,15.20
2014,09,15,02,09,15.20
2014,09,15,02,10,15.20
2014,09,15,02,11,15.20
2014,09,15,02,12,15.20
2014,09,15,02,13,15.20
2014,09,15,02,14,15.20
2014,09,15,02,15,15.20
2014,09,15,02,16,15.10
2014,09,15,02,17,15.10
2014,09,15,02,18,15.10
2014,09,15,02,19,15.10
2014,09,15,02,20,15.10
2014,09,15,02,21,15.00
2014,09,15,02,22,15.00
2014,09,15,02,23,15.00
2014,09,15,02,24,15.00
2014,09,15,02,25,15.00
2014,09,15,02,26,15.00
2014,09,15,02,27,15.00
2014,09,15,02,28,15.10
2014,09,15,02,29,15.10
2014,09,15,02,30,15.10
2014,09,15,02,31,15.20
2014,09,15,02,32,15.20
2014,09,15,02,33,15.20
2014,09,15,02,34,15.30
2014,09,15,02,35,15.30
2014,09,15,02,36,15.30
2014,09,15,02,37,15.30
2014,09,15,02,38,15.30
2014,09,15,02,39,15.30
2014,09,15,02,40,15.30
2014,09,15,02,41,15.30
2014,09,15,02,42,15.30
2014,09,15,02,43,15.30
2014,09,15,02,44,15.30
2014,09,15,02,45,15.30
2014,09,15,02,46,15.30
2014,09,15,02,47,15.30
2014,09,15,02,48,15.30
2014,09,15,02,49,15.30
2014,09,15,02,50,15.40
2014,09,15,02,51,15.40
2014,09,15,02,52,15.40
2014,09,15,02,53,15.40
2014,09,15,02,54,15.40
2014,09,15,02,55,15.40
2014,09,15,02,56,15.40
2014,09,15,02,57,15.40
2014,09,15,02,58,15.40
2014,09,15,02,59,15.40
2014,09,15,03,00,15.50
2014,09,15,03,01,15.50
2014,09,15,03,02,15.50
2014,09,15,03,03,15.50
2014,09,15,03,04,15.50
2014,09,15,03,05,15.60
2014,09,15,03,06,15.60
2014,09,15,03,07,15.60
2014,09,15,03,08,15.60
2014,09,15,03,09,15.50
2014,09,15,03,10,15.50
2014,09,15,03,11,15.50
2014,09,15,03,12,15.50
2014,09,15,03,13,15.50
2014,09,15,03,14,15.50
2014,09,15,03,15,15.50
2014,09,15,03,16,15.60
2014,09,15,03,17,15.60
2014,09,15,03,18,15.60
2014,09,15,03,19,15.60
2014,09,15,03,20,15.70
2014,09,15,03,21,15.70
2014,09,15,03,22,15.70
2014,09,15,03,23,15.70
2014,09,15,03,24,15.70
2014,09,15,03,25,15.70
2014,09,15,03,26,15.70
2014,09,15,03,27,15.70
2014,09,15,03,28,15.70
2014,09,15,03,29,15.70
2014,09,15,03,30,15.60
2014,09,15,03,31,15.50
2014,09,15,03,32,15.50
2014,09,15,03,33,15.40
2014,09,15,03,34,15.40
2014,09,15,03,35,15.30
2014,09,15,03,36,15.30
2014,09,15,03,37,15.30
2014,09,15,03,38,15.30
2014,09,15,03,39,15.30
2014,09,15,03,40,15.30
2014,09,15,03,41,15.30
2014,09,15,03,42,15.30
2014,09,15,03,43,15.30
2014,09,15,03,44,15.30
2014,09,15,03,45,15.30
2014,09,15,03,46,15.20
2014,09,15,03,47,15.20
2014,09,15,03,48,15.30
2014,09,15,03,49,15.30
2014,09,15,03,50,15.30
2014,09,15,03,51,15.40
2014,09,15,03,52,15.40
2014,09,15,03,53,15.50
2014,09,15,03,54,15.50
2014,09,15,03,55,15.50
2014,09,15,03,56,15.60
2014,09,15,03,57,15.60
2014,09,15,03,58,15.60
2014,09,15,03,59,15.60
2014,09,15,04,00,15.60
2014,09,15,04,01,15.70
2014,09,15,04,02,15.70
2014,09,15,04,03,15.70
2014,09,15,04,04,15.70
2014,09,15,04,05,15.70
2014,09,15,04,06,15.70
2014,09,15,04,07,15.70
2014,09,15,04,08,15.70
2014,09,15,04,09,15.70
2014,09,15,04,10,15.70
2014,09,15,04,11,15.60
2014,09,15,04,12,15.60
2014,09,15,04,13,15.60
2014,09,15,04,14,15.60
2014,09,15,04,15,15.60
2014,09,15,04,16,15.60
2014,09,15,04,17,15.60
2014,09,15,04,18,15.60
2014,09,15,04,19,15.60
2014,09,15,04,20,15.60
2014,09,15,04,21,15.60
2014,09,15,04,22,15.60
2014,09,15,04,23,15.60
2014,09,15,04,24,15.60
2014,09,15,04,25,15.50
2014,09,15,04,26,15.50
2014,09,15,04,27,15.50
2014,09,15,04,28,15.50
2014,09,15,04,29,15.50
2014,09,15,04,30,15.40
2014,09,15,04,31,15.40
2014,09,15,04,32,15.40
2014,09,15,04,33,15.40
2014,09,15,04,34,15.40
2014,09,15,04,35,15.40
2014,09,15,04,36,15.30
2014,09,15,04,37,15.30
2014,09,15,04,38,15.30
2014,09,15,04,39,15.30
2014,09,15,04,40,15.30
2014,09,15,04,41,15.20
2014,09,15,04,42,15.10
2014,09,15,04,43,15.10
2014,09,15,04,44,15.00
2014,09,15,04,45,15.00
2014,09,15,04,46,14.90
2014,09,15,04,47,14.90
2014,09,15,04,48,14.80
2014,09,15,04,49,14.80
2014,09,15,04,50,14.80
2014,09,15,04,51,14.80
2014,09,15,04,52,14.80
2014,09,15,04,53,14.80
2014,09,15,04,54,14.80
2014,09,15,04,55,14.80
2014,09,15,04,56,14.80
2014,09,15,04,57,14.80
2014,09,15,04,58,14.80
2014,09,15,04,59,14.80
2014,09,15,05,00,14.70
2014,09,15,05,01,14.70
2014,09,15,05,02,14.70
2014,09,15,05,03,14.70
2014,09,15,05,04,14.60
2014,09,15,05,05,14.60
2014,09,15,05,06,14.50
2014,09,15,05,07,14.50
2014,09,15,05,08,14.50
2014,09,15,05,09,14.40
2014,09,15,05,10,14.40
2014,09,15,05,11,14.40
2014,09,15,05,12,14.40
2014,09,15,05,13,14.40
2014,09,15,05,14,14.40
2014,09,15,05,15,14.40
2014,09,15,05,16,14.40
2014,09,15,05,17,14.50
2014,09,15,05,18,14.50
2014,09,15,05,19,14.60
2014,09,15,05,20,14.60
2014,09,15,05,21,14.70
2014,09,15,05,22,14.70
2014,09,15,05,23,14.70
2014,09,15,05,24,14.70
2014,09,15,05,25,14.70
2014,09,15,05,26,14.80
2014,09,15,05,27,14.80
2014,09,15,05,28,14.80
2014,09,15,05,29,14.80
2014,09,15,05,30,14.80
2014,09,15,05,31,14.70
2014,09,15,05,32,14.70
2014,09,15,05,33,14.70
2014,09,15,05,34,14.70
2014,09,15,05,35,14.70
2014,09,15,05,36,14.70
2014,09,15,05,37,14.70
2014,09,15,05,38,14.70
2014,09,15,05,39,14.70
2014,09,15,05,40,14.60
2014,09,15,05,41,14.60
2014,09,15,05,42,14.60
2014,09,15,05,43,14.60
2014,09,15,05,44,14.60
2014,09,15,05,45,14.60
2014,09,15,05,46,14.60
2014,09,15,05,47,14.60
2014,09,15,05,48,14.60
2014,09,15,05,49,14.60
2014,09,15,05,50,14.50
2014,09,15,05,51,14.50
2014,09,15,05,52,14.50
2014,09,15,05,53,14.50
2014,09,15,05,54,14.40
2014,09,15,05,55,14.40
2014,09,15,05,56,14.30
2014,09,15,05,57,14.30
2014,09,15,05,58,14.20
2014,09,15,05,59,14.20
2014,09,15,06,00,14.10
2014,09,15,06,01,14.10
2014,09,15,06,02,14.10
2014,09,15,06,03,14.00
2014,09,15,06,04,14.00
2014,09,15,06,05,13.90
2014,09,15,06,06,13.90
2014,09,15,06,07,13.80
2014,09,15,06,08,13.80
2014,09,15,06,09,13.80
2014,09,15,06,10,13.70
2014,09,15,06,11,13.70
2014,09,15,06,12,13.70
2014,09,15,06,13,13.70
2014,09,15,06,14,13.70
2014,09,15,06,15,13.70
2014,09,15,06,16,13.70
2014,09,15,06,17,13.70
2014,09,15,06,18,13.70
2014,09,15,06,19,13.70
2014,09,15,06,20,13.70
2014,09,15,06,21,13.70
2014,09,15,06,22,13.70
2014,09,15,06,23,13.70
2014,09,15,06,24,13.70
2014,09,15,06,25,13.70
2014,09,15,06,26,13.70
2014,09,15,06,27,13.80
2014,09,15,06,28,13.80
2014,09,15,06,29,13.80
2014,09,15,06,30,13.80
2014,09,15,06,31,13.80
2014,09,15,06,32,13.80
2014,09,15,06,33,13.80
2014,09,15,06,34,13.80
2014,09,15,06,35,13.80
2014,09,15,06,36,13.80
2014,09,15,06,37,13.80
2014,09,15,06,38,13.80
2014,09,15,06,39,13.70
2014,09,15,06,40,13.70
2014,09,15,06,41,13.70
2014,09,15,06,42,13.70
2014,09,15,06,43,13.70
2014,09,15,06,44,13.70
2014,09,15,06,45,13.70
2014,09,15,06,46,13.70
2014,09,15,06,47,13.70
2014,09,15,06,48,13.70
2014,09,15,06,49,13.70
2014,09,15,06,50,13.70
2014,09,15,06,51,13.80
2014,09,15,06,52,13.80
2014,09,15,06,53,13.80
2014,09,15,06,54,13.80
2014,09,15,06,55,13.80
2014,09,15,06,56,13.80
2014,09,15,06,57,13.80
2014,09,15,06,58,13.90
2014,09,15,06,59,13.90
2014,09,15,07,00,13.90
2014,09,15,07,01,13.90
2014,09,15,07,02,13.80
2014,09,15,07,03,13.80
2014,09,15,07,04,13.80
2014,09,15,07,05,13.80
2014,09,15,07,06,13.80
2014,09,15,07,07,13.70
2014,09,15,07,08,13.70
2014,09,15,07,09,13.70
2014,09,15,07,10,13.70
2014,09,15,07,11,13.70
2014,09,15,07,12,13.70
2014,09,15,07,13,13.70
2014,09,15,07,14,13.70
2014,09,15,07,15,13.70
2014,09,15,07,16,13.70
2014,09,15,07,17,13.70
2014,09,15,07,18,13.80
2014,09,15,07,19,13.80
2014,09,15,07,20,13.80
2014,09,15,07,21,13.80
2014,09,15,07,22,13.80
2014,09,15,07,23,13.80
2014,09,15,07,24,13.90
2014,09,15,07,25,13.90
2014,09,15,07,26,13.90
2014,09,15,07,27,13.90
2014,09,15,07,28,14.00
2014,09,15,07,29,14.00
2014,09,15,07,30,14.00
2014,09,15,07,31,14.10
2014,09,15,07,32,14.10
2014,09,15,07,33,14.10
2014,09,15,07,34,14.20
2014,09,15,07,35,14.20
2014,09,15,07,36,14.20
2014,09,15,07,37,14.20
2014,09,15,07,38,14.30
2014,09,15,07,39,14.30
2014,09,15,07,40,14.30
2014,09,15,07,41,14.40
2014,09,15,07,42,14.40
2014,09,15,07,43,14.40
2014,09,15,07,44,14.40
2014,09,15,07,45,14.50
2014,09,15,07,46,14.50
2014,09,15,07,47,14.60
2014,09,15,07,48,14.60
2014,09,15,07,49,14.60
2014,09,15,07,50,14.60
2014,09,15,07,51,14.70
2014,09,15,07,52,14.70
2014,09,15,07,53,14.70
2014,09,15,07,54,14.80
2014,09,15,07,55,14.80
2014,09,15,07,56,14.90
2014,09,15,07,57,14.90
2014,09,15,07,58,14.90
2014,09,15,07,59,14.90
2014,09,15,08,00,14.90
2014,09,15,08,01,15.00
2014,09,15,08,02,15.00
2014,09,15,08,03,15.00
2014,09,15,08,04,15.10
2014,09,15,08,05,15.10
2014,09,15,08,06,15.20
2014,09,15,08,07,15.20
2014,09,15,08,08,15.30
2014,09,15,08,09,15.30
2014,09,15,08,10,15.30
2014,09,15,08,11,15.30
2014,09,15,08,12,15.30
2014,09,15,08,13,15.30
2014,09,15,08,14,15.30
2014,09,15,08,15,15.30
2014,09,15,08,16,15.30
2014,09,15,08,17,15.20
2014,09,15,08,18,15.20
2014,09,15,08,19,15.20
2014,09,15,08,20,15.20
2014,09,15,08,21,15.30
2014,09,15,08,22,15.30
2014,09,15,08,23,15.30
2014,09,15,08,24,15.40
2014,09,15,08,25,15.40
2014,09,15,08,26,15.40
2014,09,15,08,27,15.40
2014,09,15,08,28,15.40
2014,09,15,08,29,15.40
2014,09,15,08,30,15.50
2014,09,15,08,31,15.50
2014,09,15,08,32,15.50
2014,09,15,08,33,15.50
2014,09,15,08,34,15.50
2014,09,15,08,35,15.50
2014,09,15,08,36,15.50
2014,09,15,08,37,15.60
2014,09,15,08,38,15.60
2014,09,15,08,39,15.70
2014,09,15,08,40,15.70
2014,09,15,08,41,15.70
2014,09,15,08,42,15.80
2014,09,15,08,43,15.80
2014,09,15,08,44,15.90
2014,09,15,08,45,16.00
2014,09,15,08,46,16.10
2014,09,15,08,47,16.10
2014,09,15,08,48,16.20
2014,09,15,08,49,16.30
2014,09,15,08,50,16.30
2014,09,15,08,51,16.40
2014,09,15,08,52,16.50
2014,09,15,08,53,16.60
2014,09,15,08,54,16.60
2014,09,15,08,55,16.70
2014,09,15,08,56,16.70
2014,09,15,08,57,16.80
2014,09,15,08,58,16.80
2014,09,15,08,59,16.80
2014,09,15,09,00,16.80
2014,09,15,09,01,16.90
2014,09,15,09,02,17.00
2014,09,15,09,03,17.10
2014,09,15,09,04,17.20
2014,09,15,09,05,17.40
2014,09,15,09,06,17.50
2014,09,15,09,07,17.60
2014,09,15,09,08,17.70
2014,09,15,09,09,17.80
2014,09,15,09,10,17.90
2014,09,15,09,11,18.00
2014,09,15,09,12,18.00
2014,09,15,09,13,18.10
2014,09,15,09,14,18.10
2014,09,15,09,15,18.10
2014,09,15,09,16,18.10
2014,09,15,09,17,18.10
2014,09,15,09,18,18.10
2014,09,15,09,19,18.20
2014,09,15,09,20,18.30
2014,09,15,09,21,18.40
2014,09,15,09,22,18.50
2014,09,15,09,23,18.60
2014,09,15,09,24,18.60
2014,09,15,09,25,18.70
2014,09,15,09,26,18.80
2014,09,15,09,27,18.80
2014,09,15,09,28,18.80
2014,09,15,09,29,18.90
2014,09,15,09,30,19.00
2014,09,15,09,31,19.10
2014,09,15,09,32,19.20
2014,09,15,09,33,19.30
2014,09,15,09,34,19.40
2014,09,15,09,35,19.50
2014,09,15,09,36,19.60
2014,09,15,09,37,19.60
2014,09,15,09,38,19.60
2014,09,15,09,39,19.60
2014,09,15,09,40,19.60
2014,09,15,09,41,19.70
2014,09,15,09,42,19.70
2014,09,15,09,43,19.70
2014,09,15,09,44,19.70
2014,09,15,09,45,19.70
2014,09,15,09,46,19.70
2014,09,15,09,47,19.70
2014,09,15,09,48,19.70
2014,09,15,09,49,19.80
2014,09,15,09,50,19.80
2014,09,15,09,51,19.80
2014,09,15,09,52,19.80
2014,09,15,09,53,19.80
2014,09,15,09,54,19.80
2014,09,15,09,55,19.80
2014,09,15,09,56,19.80
2014,09,15,09,57,19.80
2014,09,15,09,58,19.80
2014,09,15,09,59,19.80
2014,09,15,10,00,19.80
2014,09,15,10,01,19.70
2014,09,15,10,02,19.70
2014,09,15,10,03,19.70
2014,09,15,10,04,19.60
2014,09,15,10,05,19.60
2014,09,15,10,06,19.60
2014,09,15,10,07,19.70
2014,09,15,10,08,19.70
2014,09,15,10,09,19.70
2014,09,15,10,10,19.80
2014,09,15,10,11,19.70
2014,09,15,10,12,19.70
2014,09,15,10,13,19.80
2014,09,15,10,14,19.80
2014,09,15,10,15,19.70
2014,09,15,10,16,19.70
2014,09,15,10,17,19.70
2014,09,15,10,18,19.70
2014,09,15,10,19,19.80
2014,09,15,10,20,19.80
2014,09,15,10,21,19.90
2014,09,15,10,22,19.90
2014,09,15,10,23,20.00
2014,09,15,10,24,20.10
2014,09,15,10,25,20.10
2014,09,15,10,26,20.20
2014,09,15,10,27,20.30
2014,09,15,10,28,20.30
2014,09,15,10,29,20.40
2014,09,15,10,30,20.50
2014,09,15,10,31,20.50
2014,09,15,10,32,20.50
2014,09,15,10,33,20.60
2014,09,15,10,34,20.60
2014,09,15,10,35,20.70
2014,09,15,10,36,20.80
2014,09,15,10,37,20.90
2014,09,15,10,38,21.00
2014,09,15,10,39,21.10
2014,09,15,10,40,21.20
2014,09,15,10,41,21.20
2014,09,15,10,42,21.30
2014,09,15,10,43,21.30
2014,09,15,10,44,21.40
2014,09,15,10,45,21.40
2014,09,15,10,46,21.40
2014,09,15,10,47,21.40
2014,09,15,10,48,21.40
2014,09,15,10,49,21.40
2014,09,15,10,50,21.50
2014,09,15,10,51,21.40
2014,09,15,10,52,21.40
2014,09,15,10,53,21.30
2014,09,15,10,54,21.30
2014,09,15,10,55,21.30
2014,09,15,10,56,21.30
2014,09,15,10,57,21.30
2014,09,15,10,58,21.20
2014,09,15,10,59,21.20
2014,09,15,11,00,21.20
2014,09,15,11,01,21.20
2014,09,15,11,02,21.20
2014,09,15,11,03,21.20
2014,09,15,11,04,21.30
2014,09,15,11,05,21.30
2014,09,15,11,06,21.40
2014,09,15,11,07,21.50
2014,09,15,11,08,21.60
2014,09,15,11,09,21.70
2014,09,15,11,10,21.80
2014,09,15,11,11,21.90
2014,09,15,11,12,22.00
2014,09,15,11,13,22.00
2014,09,15,11,14,22.10
2014,09,15,11,15,22.10
2014,09,15,11,16,22.10
2014,09,15,11,17,22.20
2014,09,15,11,18,22.20
2014,09,15,11,19,22.10
2014,09,15,11,20,22.10
2014,09,15,11,21,22.10
2014,09,15,11,22,22.10
2014,09,15,11,23,22.20
2014,09,15,11,24,22.20
2014,09,15,11,25,22.20
2014,09,15,11,26,22.20
2014,09,15,11,27,22.20
2014,09,15,11,28,22.20
2014,09,15,11,29,22.20
2014,09,15,11,30,22.30
2014,09,15,11,31,22.30
2014,09,15,11,32,22.30
2014,09,15,11,33,22.30
2014,09,15,11,34,22.40
2014,09,15,11,35,22.40
2014,09,15,11,36,22.50
2014,09,15,11,37,22.60
2014,09,15,11,38,22.60
2014,09,15,11,39,22.60
2014,09,15,11,40,22.70
2014,09,15,11,41,22.70
2014,09,15,11,42,22.70
2014,09,15,11,43,22.70
2014,09,15,11,44,22.80
2014,09,15,11,45,22.80
2014,09,15,11,46,22.80
2014,09,15,11,47,22.80
2014,09,15,11,48,22.80
2014,09,15,11,49,22.80
2014,09,15,11,50,22.80
2014,09,15,11,51,22.80
2014,09,15,11,52,22.80
2014,09,15,11,53,22.80
2014,09,15,11,54,22.80
2014,09,15,11,55,22.80
2014,09,15,11,56,22.80
2014,09,15,11,57,22.80
2014,09,15,11,58,22.80
2014,09,15,11,59,22.80
2014,09,15,12,00,22.80
2014,09,15,12,01,22.80
2014,09,15,12,02,22.70
2014,09,15,12,03,22.70
2014,09,15,12,04,22.70
2014,09,15,12,05,22.70
2014,09,15,12,06,22.60
2014,09,15,12,07,22.60
2014,09,15,12,08,22.70
2014,09,15,12,09,22.70
2014,09,15,12,10,22.70
2014,09,15,12,11,22.80
2014,09,15,12,12,22.80
2014,09,15,12,13,22.80
2014,09,15,12,14,22.80
2014,09,15,12,15,22.80
2014,09,15,12,16,22.80
2014,09,15,12,17,22.80
2014,09,15,12,18,22.80
2014,09,15,12,19,22.80
2014,09,15,12,20,22.80
2014,09,15,12,21,22.80
2014,09,15,12,22,22.80
2014,09,15,12,23,22.80
2014,09,15,12,24,22.80
2014,09,15,12,25,22.80
2014,09,15,12,26,22.80
2014,09,15,12,27,22.80
2014,09,15,12,28,22.80
2014,09,15,12,29,22.80
2014,09,15,12,30,22.80
2014,09,15,12,31,22.80
2014,09,15,12,32,22.80
2014,09,15,12,33,22.80
2014,09,15,12,34,22.80
2014,09,15,12,35,22.80
2014,09,15,12,36,22.80
2014,09,15,12,37,22.80
2014,09,15,12,38,22.80
2014,09,15,12,39,22.90
2014,09,15,12,40,22.90
2014,09,15,12,41,22.90
2014,09,15,12,42,22.90
2014,09,15,12,43,22.90
2014,09,15,12,44,22.90
2014,09,15,12,45,22.90
2014,09,15,12,46,23.00
2014,09,15,12,47,23.00
2014,09,15,12,48,23.00
2014,09,15,12,49,23.10
2014,09,15,12,50,23.10
2014,09,15,12,51,23.10
2014,09,15,12,52,23.10
2014,09,15,12,53,23.20
2014,09,15,12,54,23.20
2014,09,15,12,55,23.10
2014,09,15,12,56,23.10
2014,09,15,12,57,23.10
2014,09,15,12,58,23.10
2014,09,15,12,59,23.10
2014,09,15,13,00,23.10
2014,09,15,13,01,23.20
2014,09,15,13,02,23.20
2014,09,15,13,03,23.20
2014,09,15,13,04,23.20
2014,09,15,13,05,23.20
2014,09,15,13,06,23.20
2014,09,15,13,07,23.30
2014,09,15,13,08,23.30
2014,09,15,13,09,23.30
2014,09,15,13,10,23.40
2014,09,15,13,11,23.40
2014,09,15,13,12,23.40
2014,09,15,13,13,23.40
2014,09,15,13,14,23.30
2014,09,15,13,15,23.30
2014,09,15,13,16,23.30
2014,09,15,13,17,23.30
2014,09,15,13,18,23.30
2014,09,15,13,19,23.30
2014,09,15,13,20,23.30
2014,09,15,13,21,23.40
2014,09,15,13,22,23.50
2014,09,15,13,23,23.60
2014,09,15,13,24,23.60
2014,09,15,13,25,23.70
2014,09,15,13,26,23.70
2014,09,15,13,27,23.80
2014,09,15,13,28,23.80
2014,09,15,13,29,23.80
2014,09,15,13,30,23.80
2014,09,15,13,31,23.90
2014,09,15,13,32,23.90
2014,09,15,13,33,23.90
2014,09,15,13,34,23.90
2014,09,15,13,35,23.90
2014,09,15,13,36,24.00
2014,09,15,13,37,24.00
2014,09,15,13,38,24.10
2014,09,15,13,39,24.10
2014,09,15,13,40,24.20
2014,09,15,13,41,24.20
2014,09,15,13,42,24.30
2014,09,15,13,43,24.30
2014,09,15,13,44,24.30
2014,09,15,13,45,24.30
2014,09,15,13,46,24.30
2014,09,15,13,47,24.40
2014,09,15,13,48,24.40
2014,09,15,13,49,24.40
2014,09,15,13,50,24.40
2014,09,15,13,51,24.40
2014,09,15,13,52,24.50
2014,09,15,13,53,24.50
2014,09,15,13,54,24.60
2014,09,15,13,55,24.60
2014,09,15,13,56,24.70
2014,09,15,13,57,24.70
2014,09,15,13,58,24.70
2014,09,15,13,59,24.70
2014,09,15,14,00,24.70
2014,09,15,14,01,24.80
2014,09,15,14,02,24.80
2014,09,15,14,03,24.90
2014,09,15,14,04,24.90
2014,09,15,14,05,24.90
2014,09,15,14,06,25.00
2014,09,15,14,07,25.00
2014,09,15,14,08,25.00
2014,09,15,14,09,25.00
2014,09,15,14,10,25.00
2014,09,15,14,11,25.00
2014,09,15,14,12,25.00
2014,09,15,14,13,25.00
2014,09,15,14,14,25.10
2014,09,15,14,15,25.10
2014,09,15,14,16,25.10
2014,09,15,14,17,25.20
2014,09,15,14,18,25.20
2014,09,15,14,19,25.20
2014,09,15,14,20,25.20
2014,09,15,14,21,25.30
2014,09,15,14,22,25.30
2014,09,15,14,23,25.30
2014,09,15,14,24,25.20
2014,09,15,14,25,25.10
2014,09,15,14,26,25.00
2014,09,15,14,27,25.00
2014,09,15,14,28,24.90
2014,09,15,14,29,24.90
2014,09,15,14,30,25.00
2014,09,15,14,31,25.10
2014,09,15,14,32,25.10
2014,09,15,14,33,25.00
2014,09,15,14,34,25.00
2014,09,15,14,35,25.00
2014,09,15,14,36,24.90
2014,09,15,14,37,24.90
2014,09,15,14,38,24.90
2014,09,15,14,39,25.00
2014,09,15,14,40,25.00
2014,09,15,14,41,25.00
2014,09,15,14,42,25.00
2014,09,15,14,43,24.90
2014,09,15,14,44,24.90
2014,09,15,14,45,24.90
2014,09,15,14,46,24.90
2014,09,15,14,47,25.00
2014,09,15,14,48,25.00
2014,09,15,14,49,25.00
2014,09,15,14,50,25.00
2014,09,15,14,51,24.90
2014,09,15,14,52,25.00
2014,09,15,14,53,25.00
2014,09,15,14,54,25.00
2014,09,15,14,55,24.90
2014,09,15,14,56,24.90
2014,09,15,14,57,24.90
2014,09,15,14,58,24.90
2014,09,15,14,59,24.90
2014,09,15,15,00,24.90
2014,09,15,15,01,24.80
2014,09,15,15,02,24.80
2014,09,15,15,03,24.80
2014,09,15,15,04,24.80
2014,09,15,15,05,24.80
2014,09,15,15,06,24.80
2014,09,15,15,07,24.70
2014,09,15,15,08,24.70
2014,09,15,15,09,24.70
2014,09,15,15,10,24.70
2014,09,15,15,11,24.70
2014,09,15,15,12,24.80
2014,09,15,15,13,24.80
2014,09,15,15,14,24.80
2014,09,15,15,15,24.80
2014,09,15,15,16,24.90
2014,09,15,15,17,24.90
2014,09,15,15,18,25.00
2014,09,15,15,19,25.10
2014,09,15,15,20,25.10
2014,09,15,15,21,25.20
2014,09,15,15,22,25.20
2014,09,15,15,23,25.20
2014,09,15,15,24,25.30
2014,09,15,15,25,25.30
2014,09,15,15,26,25.30
2014,09,15,15,27,25.40
2014,09,15,15,28,25.40
2014,09,15,15,29,25.30
2014,09,15,15,30,25.30
2014,09,15,15,31,25.30
2014,09,15,15,32,25.30
2014,09,15,15,33,25.30
2014,09,15,15,34,25.30
2014,09,15,15,35,25.30
2014,09,15,15,36,25.30
2014,09,15,15,37,25.30
2014,09,15,15,38,25.40
2014,09,15,15,39,25.40
2014,09,15,15,40,25.40
2014,09,15,15,41,25.50
2014,09,15,15,42,25.50
2014,09,15,15,43,25.50
2014,09,15,15,44,25.50
2014,09,15,15,45,25.50
2014,09,15,15,46,25.50
2014,09,15,15,47,25.50
2014,09,15,15,48,25.60
2014,09,15,15,49,25.60
2014,09,15,15,50,25.60
2014,09,15,15,51,25.60
2014,09,15,15,52,25.60
2014,09,15,15,53,25.60
2014,09,15,15,54,25.60
2014,09,15,15,55,25.60
2014,09,15,15,56,25.60
2014,09,15,15,57,25.60
2014,09,15,15,58,25.60
2014,09,15,15,59,25.60
2014,09,15,16,00,25.70
2014,09,15,16,01,25.70
2014,09,15,16,02,25.70
2014,09,15,16,03,25.70
2014,09,15,16,04,25.70
2014,09,15,16,05,25.70
2014,09,15,16,06,25.70
2014,09,15,16,07,25.70
2014,09,15,16,08,25.70
2014,09,15,16,09,25.70
2014,09,15,16,10,25.70
2014,09,15,16,11,25.80
2014,09,15,16,12,25.90
2014,09,15,16,13,26.00
2014,09,15,16,14,26.00
2014,09,15,16,15,26.10
2014,09,15,16,16,26.10
2014,09,15,16,17,26.00
2014,09,15,16,18,25.90
2014,09,15,16,19,25.90
2014,09,15,16,20,25.80
2014,09,15,16,21,25.80
2014,09,15,16,22,25.80
2014,09,15,16,23,25.70
2014,09,15,16,24,25.70
2014,09,15,16,25,25.70
2014,09,15,16,26,25.70
2014,09,15,16,27,25.70
2014,09,15,16,28,25.70
2014,09,15,16,29,25.70
2014,09,15,16,30,25.70
2014,09,15,16,31,25.60
2014,09,15,16,32,25.60
2014,09,15,16,33,25.70
2014,09,15,16,34,25.70
2014,09,15,16,35,25.70
2014,09,15,16,36,25.70
2014,09,15,16,37,25.70
2014,09,15,16,38,25.70
2014,09,15,16,39,25.70
2014,09,15,16,40,25.60
2014,09,15,16,41,25.60
2014,09,15,16,42,25.60
2014,09,15,16,43,25.60
2014,09,15,16,44,25.60
2014,09,15,16,45,25.50
2014,09,15,16,46,25.50
2014,09,15,16,47,25.50
2014,09,15,16,48,25.40
2014,09,15,16,49,25.40
2014,09,15,16,50,25.40
2014,09,15,16,51,25.30
2014,09,15,16,52,25.30
2014,09,15,16,53,25.30
2014,09,15,16,54,25.30
2014,09,15,16,55,25.30
2014,09,15,16,56,25.30
2014,09,15,16,57,25.30
2014,09,15,16,58,25.20
2014,09,15,16,59,25.20
2014,09,15,17,00,25.20
2014,09,15,17,01,25.20
2014,09,15,17,02,25.20
2014,09,15,17,03,25.20
2014,09,15,17,04,25.20
2014,09,15,17,05,25.20
2014,09,15,17,06,25.20
2014,09,15,17,07,25.20
2014,09,15,17,08,25.20
2014,09,15,17,09,25.20
2014,09,15,17,10,25.20
2014,09,15,17,11,25.20
2014,09,15,17,12,25.20
2014,09,15,17,13,25.20
2014,09,15,17,14,25.20
2014,09,15,17,15,25.20
2014,09,15,17,16,25.20
2014,09,15,17,17,25.10
2014,09,15,17,18,25.10
2014,09,15,17,19,25.00